Location: *
(28.2408°N, 53.4600°E)
Time: 20:46:55
(UTC+00:00)

Okean 1-7 Rocket - Pass Details

Date: 22 September 2019
Orbit: 617 x 649 km, 82.5° (Epoch: 17 October)

Event Time Altitude Azimuth Distance (km) Brightness Sun altitude
Rises 16:14:17 0° 350° (N) 2,917 7.3 -25.0°
Reaches altitude 10° 16:16:31 10° 347° (NNW) 2,012 6.5 -25.5°
Maximum altitude 16:20:56 65° 267° (W) 700 3.9 -26.4°
Enters shadow 16:21:14 63° 243° (WSW) 711 3.9 -26.5°
